Regional Weather Roundup
Issued by NWS Kansas City/Pleasant Hill, MO

Home | Current Version | Previous Version | Graphics & Text | Print | Product List | Glossary Off
Versions: 1 2 3 4 5 6 7 8 9 10 11 12 13 14 15 16 17 18 19 20 21 22 23 24 25 26 27 28 29 30 31 32 33 34 35 36 37 38 39 40 41 42 43 44 45 46 47 48 49 50

000
ASUS43 KEAX 261711
RWREAX

WEATHER ROUNDUP FOR EASTERN KANSAS AND NORTHWEST MISSOURI
NATIONAL WEATHER SERVICE KANSAS CITY/PLEASANT HILL MO
1200 PM CDT SUN APR 26 2015

KSZ040-057-103>105-MOZ028-029-037-043-261800-
...KANSAS CITY METROPOLITAN AREA...

CITY           SKY/WX    TMP DP  RH WIND       PRES   REMARKS
K.C. INTL      CLOUDY    52  43  71 NE12      30.00R
K.C. DOWNTOWN  CLOUDY    54  43  66 E13       29.99R
LEES SUMMIT    CLOUDY    50  42  74 NE13G18   29.99S
OLATHE - IXD   CLOUDY    51  42  71 E13G21    29.98R
OLATHE - OJC   CLOUDY    51  43  74 NE14      29.97R
LAWRENCE       CLOUDY    52  43  71 E12G22    29.99R

$$

MOZ001>008-011>017-020>025-030>033-038>040-044>046-053-054-261800-
...NORTHERN AND CENTRAL MISSOURI...

CITY           SKY/WX    TMP DP  RH WIND       PRES   REMARKS
ST. JOSEPH     PTSUNNY   56  43  61 E12       30.02S
MOSBY          PTSUNNY   52  41  66 E8        30.00S
WARRENSBURG    CLOUDY    50  43  76 NE10      29.99S
WHITEMAN AFB   PTSUNNY   51  44  78 E12       29.97S
CLINTON        CLOUDY    50  45  81 E10       29.97F
SEDALIA        PTSUNNY   54  45  71 E9        29.99F
WARSAW         NOT AVBL
MARSHALL       MOSUNNY   57  45  62 E13       30.00S
CHILLICOTHE      N/A     58  38  47 E9G20     30.03R
MOBERLY        SUNNY     57  37  47 NE15G21   30.01S
KIRKSVILLE     SUNNY     56  39  53 E8G20     30.02S

$$

MOZ041-047>049-056>058-063>065-088>090-097-261800-
...EASTERN AND SOUTHERN MISSOURI...

CITY           SKY/WX    TMP DP  RH WIND       PRES   REMARKS
ST. LOUIS INTL MOSUNNY   59  36  42 E9        29.97R
SPIRIT OF STL  MOSUNNY   58  34  40 NE13      29.95F
COLUMBIA       MOSUNNY   56  42  59 E14       29.97S
JEFFERSON CITY MOSUNNY   56  39  53 NE12      29.97S
MEXICO         SUNNY     57  43  58 NE14      29.99R
HANNIBAL       SUNNY     57  30  35 NE6       30.01S
ROLLA          CLOUDY    53  45  74 NE9       29.94R
LEBANON        CLOUDY    48  45  87 NE13      29.94S
OSAGE BEACH    CLOUDY    52  43  71 NE10      29.96S
SPRINGFIELD    CLOUDY    54  45  71 NE15      29.90S
BRANSON        CLOUDY    55  48  76 E7        29.90R
NEVADA         CLOUDY    54  46  76 NE14      29.95S
JOPLIN         CLOUDY    55  49  80 NE12G18   29.90R
WEST PLAINS    CLOUDY    50  44  80 NE13      29.92S

$$

IAZ060-094-KSZ022-034>040-054-083-096-NEZ052-066-093-261800-
...KANSAS...SOUTHEAST NEBRASKA AND IOWA...

CITY           SKY/WX    TMP DP  RH WIND       PRES   REMARKS
TOPEKA         CLOUDY    53  43  68 NE14      29.99R
MANHATTAN      CLOUDY    52  46  80 NE13      29.98R
EMPORIA        CLOUDY    51  46  83 E15       29.94R
CHANUTE        CLOUDY    56  48  74 NE13      29.91R
WICHITA        CLOUDY    54  48  80 E18       29.89S
OMAHA          PTSUNNY   55  40  56 E12       30.06S
LINCOLN        PTSUNNY   55  41  59 E16G23    30.05S
FALLS CITY     CLOUDY    52  42  69 E12       30.02S
LAMONI         SUNNY     57  36  45 E8G16     30.03R
DES MOINES     MOSUNNY   58  32  37 E7        30.06F

$$




USA.gov is the U.S. government's official web portal to all federal, state and local government web resources and services.